When you browse on this site, cookies collect data to enhance your experience and personalize the content and advertising you see.
Visit our Privacy Policy to learn more. By continuing to use the site, you agree to this use of cookies and data.
  • In Spain
  • List of Countries
  • For 7 days
  • Water Temperature
  • Weather Map
  • Weather Widgets
  • user-avatar
    Login

    Hourly Weather Kariba

    Today, 27 February, Thursday

    Time Temperature Precipitation Wind Pressure Humidity
    00:00 +18°C° 0 mm 4 mps 725 mmHg 19%
    01:00 +17°C° 0 mm 4 mps 724 mmHg 19%
    02:00 +17°C° 0 mm 4 mps 724 mmHg 20%
    03:00 +15°C° 0 mm 4 mps 724 mmHg 21%
    04:00 +15°C° 0 mm 4 mps 724 mmHg 21%
    05:00 +14°C° 0 mm 4 mps 724 mmHg 22%
    06:00 +15°C° 0 mm 4 mps 724 mmHg 22%
    07:00 +17°C° 0 mm 4 mps 725 mmHg 22%
    08:00 +18°C° 0 mm 4 mps 725 mmHg 22%
    09:00 +20°C° 0 mm 4 mps 725 mmHg 19%
    10:00 +23°C° 0 mm 4 mps 725 mmHg 16%
    11:00 +27°C° 0 mm 4 mps 725 mmHg 13%
    12:00 +29°C° 0 mm 4 mps 725 mmHg 11%
    13:00 +32°C° 0 mm 4 mps 724 mmHg 9%
    14:00 +33°C° 0 mm 4 mps 723 mmHg 8%
    15:00 +33°C° 0 mm 4 mps 723 mmHg 8%
    16:00 +33°C° 0 mm 4 mps 723 mmHg 8%
    17:00 +33°C° 0 mm 4 mps 722 mmHg 8%
    18:00 +30°C° 0 mm 4 mps 722 mmHg 9%
    19:00 +28°C° 0 mm 4 mps 723 mmHg 11%
    20:00 +26°C° 0 mm 4 mps 723 mmHg 13%
    21:00 +25°C° 0 mm 5 mps 723 mmHg 14%
    22:00 +23°C° 0 mm 5 mps 723 mmHg 16%
    23:00 +22°C° 0 mm 5 mps 724 mmHg 17%

    Tomorrow, 28 February, Friday

    Time Temperature Precipitation Wind Pressure Humidity
    00:00 +21°C° 0 mm 4 mps 723 mmHg 18%
    01:00 +20°C° 0 mm 4 mps 723 mmHg 20%
    02:00 +20°C° 0 mm 4 mps 723 mmHg 21%
    03:00 +19°C° 0 mm 4 mps 723 mmHg 22%
    04:00 +19°C° 0 mm 4 mps 723 mmHg 22%
    05:00 +18°C° 0 mm 4 mps 723 mmHg 23%
    06:00 +19°C° 0 mm 4 mps 723 mmHg 22%
    07:00 +19°C° 0 mm 5 mps 724 mmHg 22%
    08:00 +20°C° 0 mm 5 mps 724 mmHg 21%
    09:00 +23°C° 0 mm 5 mps 725 mmHg 18%
    10:00 +27°C° 0 mm 5 mps 725 mmHg 15%
    11:00 +29°C° 0 mm 5 mps 725 mmHg 12%
    12:00 +32°C° 0 mm 5 mps 724 mmHg 11%
    13:00 +33°C° 0 mm 5 mps 723 mmHg 10%
    14:00 +34°C° 0 mm 4 mps 723 mmHg 9%
    15:00 +34°C° 0 mm 4 mps 722 mmHg 8%
    16:00 +34°C° 0 mm 5 mps 722 mmHg 8%
    17:00 +34°C° 0 mm 5 mps 722 mmHg 8%
    18:00 +30°C° 0 mm 4 mps 722 mmHg 9%
    19:00 +28°C° 0 mm 4 mps 722 mmHg 11%
    20:00 +26°C° 0 mm 4 mps 722 mmHg 12%
    21:00 +25°C° 0 mm 4 mps 722 mmHg 13%
    22:00 +23°C° 0 mm 5 mps 723 mmHg 14%
    23:00 +22°C° 0 mm 5 mps 723 mmHg 14%

    Day after tomorrow, 29 February, Saturday

    Time Temperature Precipitation Wind Pressure Humidity
    00:00 +22°C° 0 mm 5 mps 723 mmHg 15%
    01:00 +21°C° 0 mm 5 mps 723 mmHg 16%
    02:00 +20°C° 0 mm 5 mps 722 mmHg 17%
    03:00 +20°C° 0 mm 5 mps 722 mmHg 17%
    04:00 +19°C° 0 mm 5 mps 722 mmHg 18%
    05:00 +19°C° 0 mm 5 mps 722 mmHg 19%
    06:00 +20°C° 0 mm 5 mps 722 mmHg 18%
    07:00 +20°C° 0 mm 6 mps 723 mmHg 18%
    08:00 +21°C° 0 mm 6 mps 724 mmHg 17%
    09:00 +24°C° 0 mm 7 mps 724 mmHg 15%
    10:00 +28°C° 0 mm 7 mps 724 mmHg 12%
    11:00 +32°C° 0 mm 8 mps 724 mmHg 10%
    12:00 +33°C° 0 mm 8 mps 724 mmHg 9%
    13:00 +34°C° 0 mm 8 mps 723 mmHg 8%
    14:00 +35°C° 0 mm 7 mps 722 mmHg 7%
    15:00 +35°C° 0 mm 7 mps 722 mmHg 7%
    16:00 +34°C° 0 mm 7 mps 721 mmHg 7%
    17:00 +34°C° 0 mm 7 mps 721 mmHg 8%
    18:00 +32°C° 0 mm 7 mps 722 mmHg 9%
    19:00 +28°C° 0 mm 6 mps 722 mmHg 11%
    20:00 +26°C° 0 mm 6 mps 722 mmHg 12%
    21:00 +26°C° 0 mm 6 mps 723 mmHg 12%
    22:00 +24°C° 0 mm 6 mps 723 mmHg 13%
    23:00 +23°C° 0 mm 6 mps 723 mmHg 13%

    1 March, Sunday

    Time Temperature Precipitation Wind Pressure Humidity
    00:00 +22°C° 0 mm 6 mps 723 mmHg 14%
    01:00 +21°C° 0 mm 6 mps 722 mmHg 15%
    02:00 +21°C° 0 mm 6 mps 722 mmHg 15%
    03:00 +20°C° 0 mm 6 mps 722 mmHg 17%
    04:00 +20°C° 0 mm 6 mps 722 mmHg 18%
    05:00 +19°C° 0 mm 6 mps 722 mmHg 19%
    06:00 +20°C° 0 mm 7 mps 723 mmHg 20%
    07:00 +20°C° 0 mm 7 mps 724 mmHg 21%
    08:00 +21°C° 0 mm 8 mps 725 mmHg 22%
    09:00 +23°C° 0 mm 8 mps 725 mmHg 19%
    10:00 +26°C° 0 mm 8 mps 725 mmHg 16%
    11:00 +28°C° 0 mm 8 mps 725 mmHg 14%
    12:00 +31°C° 0 mm 8 mps 724 mmHg 12%
    13:00 +32°C° 0 mm 7 mps 723 mmHg 11%
    14:00 +33°C° 0 mm 7 mps 723 mmHg 10%
    15:00 +33°C° 0 mm 7 mps 722 mmHg 10%
    16:00 +33°C° 0 mm 7 mps 722 mmHg 10%
    17:00 +32°C° 0 mm 7 mps 722 mmHg 10%
    18:00 +29°C° 0 mm 7 mps 722 mmHg 12%
    19:00 +27°C° 0 mm 6 mps 723 mmHg 14%
    20:00 +25°C° 0 mm 5 mps 723 mmHg 16%
    21:00 +23°C° 0 mm 5 mps 723 mmHg 17%
    22:00 +22°C° 0 mm 5 mps 723 mmHg 18%
    23:00 +21°C° 0 mm 5 mps 724 mmHg 19%

    2 March, Monday

    Time Temperature Precipitation Wind Pressure Humidity
    00:00 +21°C° 0 mm 5 mps 723 mmHg 20%
    01:00 +20°C° 0 mm 5 mps 723 mmHg 20%
    02:00 +19°C° 0 mm 6 mps 723 mmHg 21%
    03:00 +17°C° 0 mm 5 mps 723 mmHg 22%
    04:00 +17°C° 0 mm 5 mps 723 mmHg 24%
    05:00 +16°C° 0 mm 5 mps 723 mmHg 25%
    06:00 +17°C° 0 mm 5 mps 723 mmHg 24%
    07:00 +17°C° 0 mm 6 mps 724 mmHg 24%
    08:00 +19°C° 0 mm 6 mps 725 mmHg 23%
    09:00 +21°C° 0 mm 6 mps 725 mmHg 20%
    10:00 +24°C° 0 mm 6 mps 725 mmHg 17%
    11:00 +27°C° 0 mm 6 mps 725 mmHg 14%
    12:00 +28°C° 0 mm 6 mps 724 mmHg 13%
    13:00 +30°C° 0 mm 5 mps 723 mmHg 11%
    14:00 +32°C° 0 mm 5 mps 722 mmHg 9%
    15:00 +32°C° 0 mm 5 mps 722 mmHg 9%
    16:00 +32°C° 0 mm 5 mps 722 mmHg 9%
    17:00 +32°C° 0 mm 6 mps 721 mmHg 9%
    18:00 +29°C° 0 mm 5 mps 722 mmHg 10%
    19:00 +27°C° 0 mm 4 mps 722 mmHg 11%
    20:00 +23°C° 0 mm 4 mps 722 mmHg 13%
    21:00 +23°C° 0 mm 4 mps 722 mmHg 14%
    22:00 +22°C° 0 mm 4 mps 723 mmHg 14%
    23:00 +21°C° 0 mm 4 mps 723 mmHg 15%

    3 March, Tuesday

    Time Temperature Precipitation Wind Pressure Humidity
    00:00 +20°C° 0 mm 4 mps 723 mmHg 16%
    01:00 +20°C° 0 mm 4 mps 722 mmHg 16%
    02:00 +19°C° 0 mm 4 mps 722 mmHg 17%
    03:00 +18°C° 0 mm 4 mps 722 mmHg 17%
    04:00 +18°C° 0 mm 4 mps 722 mmHg 18%
    05:00 +17°C° 0 mm 4 mps 722 mmHg 19%
    06:00 +18°C° 0 mm 4 mps 723 mmHg 18%
    07:00 +19°C° 0 mm 4 mps 723 mmHg 18%
    08:00 +19°C° 0 mm 4 mps 724 mmHg 18%
    09:00 +22°C° 0 mm 4 mps 724 mmHg 15%
    10:00 +26°C° 0 mm 4 mps 724 mmHg 12%
    11:00 +28°C° 0 mm 4 mps 724 mmHg 10%
    12:00 +30°C° 0 mm 4 mps 723 mmHg 9%
    13:00 +32°C° 0 mm 4 mps 722 mmHg 8%
    14:00 +33°C° 0 mm 3 mps 722 mmHg 7%
    15:00 +33°C° 0 mm 3 mps 721 mmHg 6%
    16:00 +34°C° 0 mm 4 mps 721 mmHg 6%
    17:00 +34°C° 0 mm 4 mps 721 mmHg 6%
    18:00 +30°C° 0 mm 4 mps 721 mmHg 7%
    19:00 +28°C° 0 mm 4 mps 721 mmHg 8%
    20:00 +26°C° 0 mm 4 mps 721 mmHg 10%
    21:00 +25°C° 0 mm 4 mps 722 mmHg 10%
    22:00 +23°C° 0 mm 4 mps 722 mmHg 10%
    23:00 +22°C° 0 mm 4 mps 722 mmHg 11%
    Show more